Lapse_Rate
5.0 5.3 5.5 5.6 5.6 5.7 5.4 5.4 5.4 5.2 5.4 5.4 5.3 5.6 5.8 5.9 5.9 6.0 6.1 6.0 6.4 6.4 6.0 6.0 5.7 6.1 6.0 6.1 5.9 5.8 5.7 5.7 5.7 5.6 5.4 5.5 5.4 5.8 5.6 5.5 5.3 5.2 5.1
4.7 4.6 4.8 4.7 4.8 4.8 4.9 5.1 5.4 5.6 5.6 5.5 5.8 6.0 6.3 5.7 5.8 6.1 6.3 6.3 6.1 6.0 5.9 6.0 5.9 5.9 5.8 5.8 5.8 5.7 5.6 5.6 5.5 5.5 5.6 5.4 5.6 5.6 5.4 5.4 5.3 5.1 4.8
4.7 4.7 4.7 4.8 4.9 5.1 5.1 5.2 5.3 5.2 5.3 5.5 5.4 5.2 5.6 5.9 6.0 6.0 5.6 5.5 5.1 5.9 5.7 5.2 5.3 5.3 5.2 4.6 4.7 5.1 5.1 5.4 5.4 5.3 5.5 5.4 5.2 5.4 5.4 5.2 5.5 5.3 5.3
4.4 4.5 4.7 5.0 5.2 5.2 5.2 5.2 5.1 5.1 5.3 5.4 5.7 5.9 6.0 6.1 6.2 6.1 6.1 6.0 5.5 5.8 5.5 5.8 5.7 5.5 5.5 5.6 5.6 5.4 5.5 5.5 5.5 5.4 5.4 5.5 5.3 5.2 5.0 5.2 5.3 5.3 5.3
4.5 4.6 4.7 4.7 4.7 4.8 5.1 5.2 5.3 5.4 5.5 5.6 5.8 5.7 6.0 5.9 5.8 5.6 5.6 5.6 5.4 5.5 5.4 5.5 5.4 5.2 5.3 5.4 5.4 5.5 5.5 5.5 5.5 5.5 5.5 5.5 5.5 5.4 5.4 5.3 5.4 5.5 5.4
4.4 4.6 4.7 4.8 4.9 5.1 5.2 5.2 5.2 5.3 5.5 5.7 5.7 5.7 5.6 5.5 5.5 5.5 5.5 5.7 5.6 5.6 5.4 5.6 5.2 5.1 5.1 5.1 5.1 5.1 5.1 5.4 5.6 5.7 6.2 6.1 6.4 6.0 5.9 5.8 5.7 6.1 5.6
4.8 4.9 5.0 5.0 5.0 5.2 5.3 5.4 5.6 5.7 5.6 5.5 5.5 5.5 5.3 5.2 5.1 5.1 5.1 5.1 5.1 4.9 4.8 4.8 4.7 4.5 4.4 4.4 4.2 4.0 4.1 4.4 4.7 5.0 5.1 5.2 5.4 5.5 5.4 5.2 5.2 5.3 5.3
5.3 5.5 5.6 5.6 5.6 5.6 5.6 5.5 5.5 5.5 5.5 5.5 5.4 5.3 5.2 5.1 5.1 5.2 5.1 4.9 4.6 4.4 4.2 4.1 4.2 4.1 3.9 3.8 3.9 3.8 3.7 3.8 3.8 4.0 4.3 4.6 4.8 5.0 5.0 5.0 5.0 4.9 4.8
5.3 5.5 5.5 5.6 5.8 5.9 5.8 5.8 5.8 5.8 5.5 5.4 5.4 5.3 5.3 5.1 5.1 4.9 4.6 4.3 4.3 4.6 4.7 4.5 4.2 4.0 4.0 3.7 3.2 3.3 3.5 3.4 3.2 3.1 3.1 3.4 3.6 3.8 4.0 4.3 4.4 4.5 4.7
5.3 5.3 5.4 5.6 5.7 5.7 5.6 5.6 5.5 5.5 5.5 5.5 5.5 5.3 5.2 5.3 5.2 4.9 4.7 4.6 4.4 4.2 3.9 3.6 3.3 3.0 2.9 3.1 3.1 2.9 2.9 2.9 2.9 2.8 2.3 2.3 2.6 2.9 3.0 3.2 3.5 3.9 3.8
4.9 5.1 5.4 5.6 5.6 5.7 5.7 5.7 5.6 5.7 5.6 5.7 5.7 5.5 5.3 5.0 4.7 4.5 4.3 4.2 4.1 4.0 3.8 3.7 3.3 3.0 2.7 2.4 2.1 1.9 1.6 1.3 1.5 1.8 2.1 2.4 2.3 2.1 2.4 2.5 2.7 3.0 3.4
4.6 4.9 5.4 5.6 5.7 5.7 5.7 5.6 5.7 5.9 5.9 5.8 5.7 5.5 5.1 4.9 4.6 4.4 4.1 3.9 3.6 3.5 3.4 3.2 2.9 2.7 2.5 2.0 1.6 1.4 1.4 1.2 1.1 1.1 1.4 1.8 2.1 2.4 2.3 2.2 2.4 2.4 2.5
4.9 5.2 5.5 5.6 6.0 6.4 6.3 6.1 6.1 6.1 6.1 5.9 5.7 5.4 5.3 5.0 4.6 4.2 4.1 4.1 3.9 3.6 3.4 3.0 2.9 2.8 2.6 2.2 1.9 1.5 1.5 1.5 1.1 1.3 1.4 1.6 1.8 1.8 2.1 2.2 2.2 2.2 2.5
5.1 5.3 5.6 6.0 6.5 6.5 6.4 6.4 6.3 6.1 6.0 5.7 5.4 5.3 5.4 5.4 5.1 5.1 5.0 4.8 4.5 4.1 3.6 3.2 3.0 2.6 2.1 1.8 1.9 2.0 1.7 1.3 0.9 1.0 1.1 1.2 1.2 1.4 1.4 1.4 1.7 2.0 2.0
5.1 5.6 6.3 6.8 6.9 6.7 6.5 6.3 6.1 5.9 5.7 5.5 5.4 5.5 5.4 5.5 5.5 5.5 5.4 5.3 5.0 4.5 3.7 3.5 3.1 2.7 2.4 2.1 1.9 1.7 1.7 1.7 1.7 1.5 1.3 1.3 1.5 1.5 1.5 1.3 1.2 1.3 1.5
5.3 5.9 6.6 6.9 6.8 6.5 6.3 6.1 5.9 5.7 5.5 5.3 5.1 5.2 5.2 5.4 5.6 5.8 5.6 5.4 5.1 4.3 3.9 3.7 3.5 3.2 2.8 2.7 2.6 2.6 2.5 2.3 2.5 2.7 2.7 2.3 2.0 2.1 2.3 2.6 2.4 2.1 1.8
5.4 5.6 6.2 6.5 6.4 6.2 5.9 5.8 5.8 5.7 5.3 5.0 5.2 5.4 5.6 5.9 6.0 5.7 5.3 5.1 4.7 4.4 4.4 4.3 4.4 4.5 4.4 4.2 4.1 4.1 4.3 4.5 4.5 4.7 4.7 4.5 4.3 4.3 4.3 4.3 4.2 3.8 3.5
5.3 5.4 5.7 6.0 6.0 5.8 5.7 5.6 5.4 5.4 5.7 5.8 5.7 5.8 6.0 6.1 5.8 5.6 5.5 5.2 5.1 5.1 4.9 5.1 5.3 5.4 5.4 5.4 5.4 5.4 5.8 6.1 6.2 6.2 6.1 6.0 6.0 6.0 6.1 6.0 5.8 5.7 5.5
5.5 5.4 5.5 5.8 5.4 5.3 5.3 5.2 5.2 5.4 5.7 6.1 6.2 6.1 6.0 6.1 5.7 5.7 5.5 5.3 5.5 5.9 6.2 6.5 6.4 6.2 6.1 6.2 6.3 6.4 6.5 6.7 6.6 6.6 6.6 6.7 6.9 7.0 7.1 7.0 6.7 6.9 6.8
5.5 5.5 5.6 5.5 5.3 5.0 5.0 5.1 5.0 5.4 5.8 6.0 6.1 6.2 6.2 6.2 6.1 6.0 6.0 5.9 6.2 6.6 6.7 6.7 6.5 6.4 6.3 6.4 6.5 6.7 6.7 6.7 6.6 6.8 6.8 6.8 6.8 6.8 7.0 7.1 7.1 7.4 7.3
5.6 5.6 5.5 5.4 5.2 5.1 5.0 4.9 5.1 5.6 5.9 6.1 6.1 6.0 6.1 6.0 5.9 5.9 6.0 6.3 6.5 6.5 6.5 6.5 6.3 6.2 6.2 6.2 6.2 6.2 6.3 6.3 6.4 6.4 6.4 6.4 6.5 6.6 6.9 7.1 7.1 7.2 7.2
5.6 5.7 5.6 5.4 5.3 5.1 5.0 4.9 5.2 5.7 5.9 6.1 6.1 6.0 5.8 5.7 5.8 5.7 5.7 5.8 5.9 6.0 6.0 6.0 6.0 5.9 5.9 5.9 6.0 6.1 6.2 6.2 6.2 6.2 6.3 6.4 6.5 6.8 7.3 7.1 7.1 7.0 7.1
5.5 5.7 5.6 5.5 5.4 5.2 5.0 4.9 5.2 5.8 5.9 6.0 6.0 6.0 5.9 5.8 5.9 5.7 5.7 5.8 5.8 5.9 5.9 5.9 6.0 5.9 5.9 6.0 6.2 6.3 6.4 6.4 6.3 6.3 6.3 6.4 6.6 6.9 7.2 7.0 6.9 6.9 7.0
5.4 5.6 5.7 5.4 5.4 5.5 5.1 5.0 5.4 5.8 5.9 6.0 6.0 5.9 5.8 5.9 6.0 5.9 5.8 5.8 5.8 5.9 6.0 6.1 6.2 6.2 6.2 6.3 6.2 6.2 6.3 6.3 6.4 6.3 6.3 6.7 7.1 7.4 7.1 6.8 6.6 6.6 6.7
5.3 5.6 5.7 5.5 5.5 5.6 5.1 5.0 5.6 5.7 5.9 5.8 5.9 5.9 5.8 6.0 6.0 6.0 6.0 5.9 5.9 6.0 6.1 6.3 6.4 6.5 6.6 6.5 6.2 6.2 6.2 6.3 6.4 6.4 6.7 7.0 7.1 7.2 6.6 6.6 6.5 6.4 6.4
5.3 5.7 5.7 5.5 5.5 5.5 5.2 5.1 5.6 5.7 5.8 5.7 5.9 5.8 5.7 5.9 6.0 6.0 6.1 6.2 6.2 6.3 6.4 6.4 6.4 6.5 6.5 6.3 6.3 6.3 6.3 6.3 6.4 6.5 6.7 6.7 6.6 6.6 6.5 6.2 6.2 6.3 6.3
Wind_Speed
7 6 6 6 6 6 5 5 4 4 7 7 7 6 6 7 5 4 5 6 6 5 4 6 7 7 5 5 5 6 5 5 6 4 5 8 3 5 5 8 11 10 11
2 1 3 3 4 6 6 7 9 11 9 9 8 7 7 7 6 6 6 6 5 5 6 7 7 7 6 7 6 7 6 5 6 10 9 8 11 7 8 9 8 10 9
4 4 4 4 5 5 6 6 7 7 7 8 6 6 6 7 7 8 9 9 8 8 8 8 6 6 6 6 7 7 6 6 5 6 7 5 6 3 3 2 3 7 6
3 4 5 5 5 5 5 5 5 4 4 4 6 6 5 5 5 6 7 8 8 8 6 6 6 6 8 8 5 6 6 6 6 6 6 6 3 3 3 3 4 2 4
2 4 4 6 6 6 6 6 5 5 5 6 7 6 6 7 5 5 5 6 7 7 6 5 5 9 13 11 7 6 6 4 5 6 6 6 6 7 7 3 3 5 2
4 4 4 5 6 6 6 6 6 6 6 6 6 6 6 6 14 14 11 6 8 8 7 6 5 8 7 13 13 16 13 8 7 5 5 7 8 8 9 9 8 2 3
1 1 2 3 4 4 5 6 6 6 6 6 6 6 6 5 15 15 14 4 6 6 7 6 5 5 6 3 8 12 12 15 14 8 8 8 10 10 9 10 10 8 8
0 1 2 3 3 4 4 4 5 4 4 5 5 6 5 6 15 15 14 5 7 9 9 8 7 6 5 6 4 5 5 5 7 7 7 7 8 10 11 10 11 11 10
3 2 1 2 3 4 4 5 4 4 4 5 5 6 7 6 14 15 9 5 6 7 8 6 6 6 7 10 5 6 7 8 10 15 16 18 20 20 18 9 8 7 9
3 2 3 4 4 5 5 5 3 4 5 5 6 7 12 7 11 12 8 3 4 5 5 7 15 13 14 11 6 5 8 8 8 9 9 12 11 11 20 10 7 9 7
2 2 3 4 4 4 4 4 4 5 5 5 6 5 6 6 7 14 15 6 4 6 4 5 5 16 16 16 17 8 7 10 8 5 6 7 9 6 5 7 6 6 9
1 2 4 4 3 3 5 4 5 6 5 5 5 5 4 5 11 13 18 17 15 7 7 6 6 17 20 19 15 16 20 14 3 4 4 5 5 6 6 7 10 9 9
1 3 3 4 4 5 4 5 4 4 4 5 4 4 5 5 4 15 17 18 18 11 8 14 23 21 21 15 17 19 18 2 4 4 6 5 4 5 5 6 9 13 16
2 3 3 3 5 4 3 3 3 4 4 4 4 6 5 7 7 5 7 8 14 11 14 10 14 17 19 16 13 9 4 4 4 4 6 6 4 3 6 7 8 8 12
3 3 3 3 3 4 4 3 3 4 4 4 4 5 8 8 8 16 16 11 10 13 17 9 5 5 6 7 6 5 4 4 5 5 6 7 7 8 9 8 8 8 10
2 2 2 2 3 3 4 4 8 13 14 14 16 12 8 16 21 23 23 23 24 25 12 8 9 7 7 7 6 4 3 7 5 6 7 6 7 8 9 11 8 9 10
2 3 3 4 3 4 3 4 5 6 13 15 16 17 19 21 21 21 21 23 24 20 8 8 8 7 6 6 4 3 5 5 4 4 7 5 7 8 11 10 10 10 11
3 7 3 3 4 4 4 4 4 5 7 6 9 14 18 20 20 21 21 19 9 9 7 7 7 6 7 6 4 5 6 4 3 7 6 6 7 8 9 10 9 10 12
3 3 3 3 3 6 4 4 4 5 6 7 7 9 13 18 20 19 18 6 8 8 8 7 7 6 6 6 6 7 8 8 8 8 8 8 8 8 10 10 9 19 20
4 9 7 3 3 4 3 4 5 5 6 7 6 8 7 11 7 7 7 7 7 7 8 8 7 6 6 7 8 8 7 8 7 7 8 8 7 8 10 9 10 11 11
3 3 7 3 3 4 3 4 5 5 6 6 7 8 21 10 8 8 9 8 8 8 8 8 8 7 7 7 8 8 8 8 8 8 8 9 7 9 8 9 10 10 11
3 3 3 3 3 2 4 4 4 5 6 6 7 9 20 7 7 8 9 9 9 9 8 8 8 8 8 8 8 9 9 9 8 8 7 9 9 9 9 9 9 9 9
3 3 3 2 3 6 3 5 5 5 7 6 7 8 8 8 8 9 10 10 10 9 9 9 9 9 8 8 8 8 9 9 8 7 8 9 6 9 9 9 10 10 8
3 4 3 3 1 2 2 3 5 9 8 7 7 7 8 8 9 11 11 10 10 10 10 9 9 12 11 10 9 7 8 9 8 9 10 8 9 12 9 10 9 11 7
4 5 3 2 2 3 3 4 6 6 6 6 7 7 8 9 10 10 11 11 10 11 12 11 10 13 14 15 14 15 16 24 15 14 9 11 12 13 11 10 11 7 4
5 3 3 2 2 3 3 4 5 6 6 7 7 7 8 9 10 10 11 11 11 11 14 11 12 16 17 13 14 17 22 21 16 19 11 8 8 9 9 10 11 3 2
Wind_Direction
5 11 18 18 24 29 34 22 350 8 15 18 19 31 16 17 2 17 1 359 13 350 18 353 357 312 349 345 345 336 343 359 315 311 346 314 265 230 222 212 208 208 214
321 16 20 27 26 24 23 11 11 12 13 16 9 14 10 4 355 24 1 351 358 350 1 1 351 344 350 352 349 337 337 344 338 327 321 335 309 238 222 215 212 217 214
33 25 31 37 32 27 22 13 8 5 9 6 6 351 355 1 352 25 5 354 354 341 350 352 334 329 344 337 342 342 330 348 326 318 316 332 317 330 311 273 248 230 219
44 35 25 18 18 18 17 10 9 0 353 359 350 353 351 349 348 25 1 348 339 337 337 336 348 352 335 327 328 323 339 338 329 326 321 326 323 331 294 290 304 266 266
8 39 18 3 5 4 358 351 345 357 354 356 352 350 352 340 352 5 352 330 331 328 329 334 336 328 319 350 332 325 328 326 329 329 324 328 328 336 328 328 294 291 271
25 46 28 12 1 355 350 348 353 354 354 354 347 345 345 342 334 337 340 341 334 327 324 329 327 313 336 341 349 354 347 336 329 324 320 317 315 337 346 342 328 273 293
98 60 46 22 351 347 349 350 347 347 349 343 341 338 330 329 331 332 333 333 322 310 312 305 305 307 328 353 4 348 336 333 326 324 328 326 323 318 323 320 317 314 295
276 37 49 14 342 338 343 346 345 335 334 328 322 320 322 319 325 326 327 333 318 309 301 298 288 291 311 324 348 333 314 321 324 322 314 301 297 308 309 304 301 299 290
208 113 29 331 326 329 337 335 323 335 327 322 316 320 310 299 303 306 311 313 305 301 302 303 310 294 297 315 323 312 306 310 309 309 305 302 304 303 298 294 286 281 292
83 25 344 342 334 326 325 326 313 313 297 296 293 283 282 286 297 317 320 266 276 288 298 305 305 303 305 307 304 281 298 290 296 303 311 306 296 286 295 283 284 281 277
69 348 334 313 301 291 307 300 296 292 286 289 289 296 307 314 327 332 328 313 280 286 284 292 292 300 307 309 306 302 275 287 300 303 289 294 298 293 290 289 275 279 288
168 269 284 290 297 310 309 303 319 318 316 314 316 322 315 318 331 326 323 317 317 327 314 301 281 292 294 299 307 300 301 306 301 277 280 286 284 286 290 299 293 289 281
246 288 291 303 307 311 322 311 317 311 313 305 313 306 313 320 316 317 320 320 322 313 307 307 314 316 307 303 294 297 304 302 271 273 275 261 254 266 276 274 285 290 282
243 269 280 293 294 309 302 305 304 304 308 305 311 308 304 312 310 307 308 309 310 309 301 293 296 300 301 296 301 298 255 251 262 275 284 275 258 279 280 286 286 284 290
225 257 282 282 324 311 295 287 275 268 265 284 287 297 306 301 297 305 313 310 306 302 309 302 288 288 289 289 280 269 290 296 296 284 283 287 294 304 300 293 283 278 281
238 276 289 309 293 290 291 298 301 300 304 304 304 299 294 298 311 313 311 313 311 309 304 299 295 282 280 278 269 270 261 285 286 292 296 286 289 292 299 299 286 292 284
233 281 292 311 308 299 301 293 302 302 302 305 307 306 313 312 314 317 314 313 311 315 308 295 281 287 294 296 291 284 289 272 259 273 286 274 285 284 299 294 290 289 285
238 270 266 269 274 281 282 279 280 295 307 307 302 311 313 314 317 315 316 322 320 309 294 293 291 293 297 294 280 283 288 281 272 289 274 273 285 289 290 287 284 293 289
237 250 256 261 284 278 272 282 285 292 298 297 302 303 312 313 312 315 319 310 300 301 301 298 291 287 288 290 292 292 292 290 286 290 291 288 285 286 287 284 286 298 296
238 255 260 238 257 270 282 278 283 290 291 292 300 306 311 308 309 312 309 302 297 296 299 301 305 302 298 292 288 283 284 288 289 287 282 277 270 280 282 284 293 291 291
234 251 265 258 266 272 264 268 281 281 284 291 296 304 311 316 318 310 307 303 299 295 293 292 290 283 280 279 278 276 275 275 273 276 279 276 272 282 284 284 286 289 292
233 250 256 250 253 262 279 272 276 286 290 297 301 301 309 313 300 300 299 297 294 289 285 283 279 273 270 266 267 268 269 270 269 269 275 288 284 282 278 285 290 291 290
220 241 252 252 251 289 307 290 289 298 296 294 295 301 307 306 302 301 299 298 295 291 286 280 275 275 271 268 265 263 266 270 270 269 274 280 292 299 291 291 294 297 291
219 241 246 252 251 258 262 285 290 297 297 303 304 306 306 304 302 301 300 298 293 288 284 280 273 269 272 269 266 262 260 263 266 267 269 277 281 287 283 283 287 287 281
221 248 232 238 243 255 285 286 292 298 298 304 307 305 303 302 301 300 299 296 291 288 285 282 275 270 266 264 261 262 263 270 270 267 263 259 262 268 272 282 285 281 256
242 219 209 224 247 253 258 285 293 299 296 307 300 296 299 300 300 300 299 296 296 296 295 288 279 271 269 268 265 264 271 275 275 273 268 258 256 264 267 272 277 251 209